Regional Weather Roundup
Issued by NWS

Home | Current Version | Previous Version | Graphics & Text | Print | Product List | Glossary On
Versions: 1 2 3 4 5 6 7 8 9 10 11 12 13 14 15 16 17 18 19 20 21 22 23 24 25 26 27 28 29 30 31 32 33 34 35 36 37 38 39 40 41 42 43 44 45 46 47 48 49 50
000
ASUS43 KIND 232259
RWRIN

WEATHER ROUNDUP FOR INDIANA
NATIONAL WEATHER SERVICE INDIANAPOLIS IN
600 PM EST SUN NOV 23 2014

NOTE: "FAIR" INDICATES FEW OR NO CLOUDS BELOW 12,000 FEET WITH NO
SIGNIFICANT WEATHER AND/OR OBSTRUCTIONS TO VISIBILITY.

* - STATION DOES NOT REPORT WEATHER SUCH AS PRECIPITATION OR FOG.

+ - STATION NOT QUALITY CONTROLLED BY THE NATIONAL WEATHER SERVICE.
    USE DATA WITH CAUTION...ESPECIALLY DEWPOINT AND RELATIVE
    HUMIDITY OBSERVATIONS.

INZ001>003-010>013-019-020-240000-
NORTHWEST INDIANA

CITY           SKY/WX    TMP DP  RH WIND       PRES   REMARKS
GARY /AIRPORT/ LGT RAIN  52  50  93 SE12      29.44F
VALPARAISO     NOT AVBL

$$

LMZ046-743>745-240000-
SOUTHERN LAKE MICHIGAN

STATION/POSITION TIME  TEMP WIND        PRES
                       AIR  DIR/SP/G
                 (UTC) (F)  (DEG/KT/KT) (MB)
MICHIGAN CITY    2200   51  120/ 13/ 18   N/A

$$

INZ004-005-014>016-021>024-240000-
NORTH CENTRAL INDIANA

CITY           SKY/WX    TMP DP  RH WIND       PRES   REMARKS
GOSHEN         RAIN      52  50  93 SE12      29.47F FOG
PERU/GRISSOM   LGT RAIN  52  52 100 SE10      29.44F
SOUTH BEND     RAIN      52  50  93 SE10      29.49F FOG

$$

INZ006>009-017-018-025>027-240000-
NORTHEAST INDIANA

CITY           SKY/WX    TMP DP  RH WIND       PRES   REMARKS
ANGOLA *+      CLOUDY    50  39  66 SE10      29.53F
FORT WAYNE     LGT RAIN  52  50  93 E13       29.50F

$$

INZ028-029-035-036-043>045-051>053-240000-
WEST CENTRAL INDIANA

CITY           SKY/WX    TMP DP  RH WIND       PRES   REMARKS
GREENCASTLE +  LGT RAIN  52  50  93 SE10G17   29.42F
LAFAYETTE      RAIN      50  50 100 E8        29.41F FOG
TERRE HAUTE    RAIN      53  51  93 SE9       29.39F FOG

$$

INZ030>032-037>040-046>048-054>057-064-065-240000-
CENTRAL INDIANA

CITY           SKY/WX    TMP DP  RH WIND       PRES   REMARKS
CP ATTERBURY + RAIN      52  50  93 SE7G16    29.46F
FRANKFORT +    HVY RAIN N/A N/A N/A SE12      29.44F
INDIANAPOLIS   RAIN      51  50  96 SE15      29.42F FOG
-EAGLE CREEK   RAIN      52  52 100 SE6       29.43F FOG
KOKOMO *+      CLOUDY    52  48  87 SE14      29.44F
MT COMFORT *+  CLOUDY    52 N/A N/A SE13      29.45F
SHELBYVILLE    RAIN      54  52  93 SE14      29.45F FOG

$$

INZ033-034-041-042-049-050-058-059-240000-
EAST CENTRAL INDIANA

CITY           SKY/WX    TMP DP  RH WIND       PRES   REMARKS
MUNCIE         LGT RAIN  54  50  86 SE17G26   29.46F

$$

INZ060-061-067>069-081>083-085>088-240000-
SOUTHWEST INDIANA

CITY           SKY/WX    TMP DP  RH WIND       PRES   REMARKS
EVANSVILLE     RAIN      57  54  89 SE7       29.35F FOG
HUNTINGBURG *+ CLOUDY    54  52  94 SE14      29.38F

$$

INZ062-063-066-070>080-084-089>092-240000-
SOUTH CENTRAL AND SOUTHEAST INDIANA

CITY           SKY/WX    TMP DP  RH WIND       PRES   REMARKS
BLOOMINGTON    RAIN      52  51  97 SE13      29.42F FOG
SEYMOUR +      RAIN      54  54 100 SE12      29.45

$$



USA.gov is the U.S. government's official web portal to all federal, state and local government web resources and services.